一网星座-0539星 (ONEWEB-0539 )

导读 | 豆包AI

ONEWEB-0539是英国OneWeb公司低轨卫星互联网星座的一员,于2022年12月8日发射。卫星重约147.5kg,运行在1200公里近地轨道,配备Ku/Ka波段天线,搭载氙气离子电推进系统,可提升至工作轨道。它为全球尤其是偏远地区提供高速低延迟互联网接入,支持航空、海运、应急通信等场景,失效后会主动离轨在大气层烧毁,减少空间碎片。

Basic Information
目录编号:
54644
目录名称:
ONEWEB-0539
国际标识:
2022-166C
轨道中心:
EARTH
卫星名称:
一网星座-0539星
卫星全名:
一网星座-0539星 (ONEWEB-0539 )
卫星状态:
在轨 (已飞行1192 天)
发射日期:
2022-12-08 UTC
国别 :
英国 (GB)
星等 :
--
Orbit Information
数据来源 国际轨道数据 AOE轨道数据
星历时间 2026-03-14T05:55:17+0800
9小时前
查看轨道信息
2026-03-12T15:00:00+0800
2天前
查看轨道信息
半长轴 7555.889km 7555.889km
偏心率 0.0001512 0.0001729
轨道倾角 87.917° 87.918°
近地点辐角 98.489° 100.905°
升交点赤经 262.962° 263.286°
平近点角 261.642° 106.550°
近地点 1176.609km 1176.445km
远地点 1178.895km 1179.059km
周期 108.940分钟 108.940分钟
每日圈数 13.218265 13.218265
Detailed Information
平衡模式:
三轴稳定
覆盖范围:
全球
运营商:
一网卫星公司
运营商所在国:
英国
制造商(研发单位):
一网卫星公司
制造商所在国:
英国
使用方式:
暂无
Satellite Introduction
OneWeb卫星网络由648颗重约125公斤的微型卫星组成,运行在1200公里的轨道上。 每颗卫星都能够提供至少每秒8千兆位的吞吐量,以使用其高吞吐量的Ku频段有效载荷为家庭和移动平台提供互联网接入。该卫星仍在工作。
2D Orbit Map
3D Orbit Map
Orbit Altitude Analysis Chart
Orbit Inclination Analysis Chart
Orbit Comprehensive Analysis Chart
View Comprehensive Chart